Home > Weather > Norway > Drøbak > Past weeks

Flag for Norway Weather past 2 weeks in Drøbak, Norway

48 °F

Light rain. Fog.

Feels Like: 37 °F
Forecast: 31 / 43 °F
Wind: 52 mph from South

Location: Oslo / Fornebu

Current Time: Dec 2, 2015 at 5:11:23 AM

Latest Report: Dec 2, 2015 at 3:50 AM

Visibility: 3 mi

Pressure: 29.42 "Hg

Humidity: 100%

Dew point: 48 °F

Location of DrøbakLocation

Historic Weather in Drøbak — Graph


Drøbak temperature yesterday

Maximum temperature yesterday: 46 °F (at 7:50 PM)
Minimum temperature yesterday: 41 °F (at 9:50 AM)
Average temperature yesterday: 44 °F

Past Weeks' High & Low Weather Summary

High52 °F (Nov 26, 5:50 PM)100% (Nov 23, 6:50 PM)30.01 "Hg (Nov 23, 6:50 PM)
Low32 °F (Nov 21, 2:20 AM)42% (Nov 27, 9:50 PM)28.65 "Hg (Nov 29, 1:20 PM)
Average43 °F73%29.38 "Hg
* Reported Nov 17 3:20 AM — Dec 2 3:50 AM, Drøbak, Weather by CustomWeather, © 2015

Note: Actual official high and low records may vary slightly from our data, if they occured in-between our weather recording intervals... More about our weather records


Drøbak weather history for previous 24 hours

Time TempWeatherWind HumidityBarometerVisibility
3:50 AM
Wed, Dec 2
48 °FLight rain. Fog.52 mph100%29.42 "Hg3 mi
3:20 AM46 °FLight rain. Fog.54 mph100%29.42 "Hg2 mi
2:50 AM46 °FLight rain. Fog.55 mph93%29.45 "Hg2 mi
1:20 AM45 °FLight rain. Passing clouds.56 mph87%29.53 "Hg4 mi
12:50 AM43 °FLight rain. Partly cloudy.56 mph87%29.56 "Hg4 mi
12:20 AM45 °FLight rain. Passing clouds.51 mph87%29.59 "Hg6 mi
11:50 PM
Tue, Dec 1
45 °FLight rain. Passing clouds.50 mph81%29.62 "Hg6 mi
11:20 PM45 °FPassing clouds.45 mph76%29.62 "HgN/A
10:50 PM45 °FSprinkles. Passing clouds.41 mph76%29.65 "HgN/A
10:20 PM45 °FSprinkles. Overcast.41 mph71%29.68 "HgN/A
9:50 PM45 °FLight rain. Passing clouds.37 mph66%29.71 "HgN/A
9:20 PM45 °FLight rain. Passing clouds.36 mph66%29.74 "HgN/A
8:50 PM46 °FPassing clouds.35 mph62%29.74 "HgN/A
8:20 PM46 °FPartly cloudy.33 mph62%29.77 "HgN/A
7:50 PM46 °FPartly cloudy.30 mph57%29.80 "HgN/A
7:20 PM45 °FPassing clouds.28 mph57%29.80 "HgN/A
6:50 PM45 °FPassing clouds.24 mph61%29.80 "HgN/A
6:20 PM45 °FPassing clouds.20 mph53%29.80 "HgN/A
5:50 PM45 °FOvercast.18 mph53%29.83 "HgN/A
5:20 PM45 °FPassing clouds.14 mph53%29.83 "HgN/A
4:50 PM45 °FPassing clouds.12 mph53%29.86 "HgN/A
4:20 PM43 °FPassing clouds.8 mph53%29.86 "HgN/A
3:50 PM43 °FPassing clouds.2 mph53%29.86 "HgN/A
3:20 PM43 °FPartly sunny.2 mph53%29.86 "HgN/A
2:50 PM43 °FPassing clouds.2 mph53%29.86 "HgN/A
2:20 PM43 °FPartly sunny.5 mph57%29.86 "HgN/A
1:50 PM43 °FPartly sunny.7 mph53%29.86 "HgN/A
1:20 PM43 °FPartly sunny.14 mph53%29.86 "HgN/A
12:50 PM45 °FPartly sunny.14 mph49%29.86 "HgN/A
12:20 PM43 °FScattered clouds.17 mph53%29.86 "HgN/A
11:50 AM43 °FScattered clouds.18 mph57%29.83 "HgN/A
11:20 AM43 °FScattered clouds.21 mph57%29.83 "HgN/A
10:50 AM43 °FScattered clouds.21 mph57%29.83 "HgN/A
10:20 AM43 °FPartly sunny.22 mph57%29.80 "HgN/A
9:50 AM41 °FPassing clouds.23 mph70%29.80 "HgN/A
7:50 AM43 °FPassing clouds.29 mph71%29.74 "HgN/A
7:20 AM43 °FPassing clouds.30 mph57%29.71 "HgN/A
6:50 AM43 °FPassing clouds.31 mph53%29.71 "HgN/A
6:20 AM43 °FPassing clouds.33 mph49%29.68 "HgN/A
5:50 AM43 °FPassing clouds.33 mph53%29.68 "HgN/A
Weather by CustomWeather, © 2015

See weather overviewHow to use our weather pages